Jackpot

Texas Poker Multi Jackpot System

Kini Telah hadir Jackpot SUPER ROYAL FLUSH

Kini Telah hadir Jackpot 2000 (khusus table VIP keatas).

Ikutilah global jackpot yang tersedia di system kami, dengan system jackpot terbaru dan pertama di indonesia, anda dapat membeli jackpot dengan harga 100 rupiah saja dan menangkan hadiahnya hingga puluhan juta rupiah.

Jackpot bukanlah suatu keharusan untuk dibeli, namun kami memberikan suatu fitur tambahan untuk member tercinta dari www.cocpoker.me.

Terdapat tiga pilihan harga jackpot yang bisa anda beli yaitu :100,500,1000 dan 2000(khusus table VIP Keatas) rupiah.

Hadiah dari Multi jackpot system www.cocpoker.me

  1. full house x 10 harga jackpot yang anda beli.
      (contoh:anda membeli 1000 maka:1000 X10 = 10.000)
  2. four of kind x 250 harga jackpot yang anda beli
      (contoh:anda membeli 1000 maka:1000 X250 = 250.000)
  3. Straight flush x 1200
      (contoh:anda membeli 1000 maka:1000 X1200 = 1.200.000)
  4. Royal flush x 10000 harga jackpot yang anda beli
      (contoh:anda membeli 1000 maka:1000 X10000 = 10.000.000)
  5. SUPER ROYAL FLUSH x 30000 harga jackpot yang anda beli
      (contoh:anda membeli 1000 maka:1000 X30000 = 30.000.000)

Kondisi kartu

  1. full house adalah kondisi kartu dimana kartu anda dan kartu tengah dengan total 7 kartu bisa mendapatkan nilai 5 kartu dengan kombinasi 1 tris(three of kind) dan 1 pair, contoh 3 kartu 10 dan 2 kartu 5
  2. Four of kind adalah kondisi kartu dimana kartu anda dan kartu tengah dengan total 7 kartu bisa mendapatkan nilai 5 kartu dengan kombinasi 4 kartu yang sama jumlah dan 1 kartu apapun juga contoh anda mendapatkan 4 buah kartu angka 3 dan 1 kartu apapun.
  3. Staright flush adalah kondisi kartu dimana kartu anda dan kartu tengah dengan total 7 kartu bisa mendapatkan nilai 5 kartu dengan kombinasi seri / staright dengan kembang yang sama contoh : urutan kartu dari angka 5, 6, 7, 8 , 9 10 dengan kembang yg sama misalnya as hati
  4. Royal flush adalah kondisi kartu dimana kartu anda dan kartu tengah dengan total 7 kartu bisa mendapatkan nilai 5 kartu dengan kombinasi seri / staright dengan kembang yang sama tetapi kartu tersebut haruslah dimulai dari 10. contoh 10, Queen, Jack, King dan aces dengan kembang yang sama
  5. Super Royal flush adalah kondisi kartu dimana Kedua kartu anda digabung dengan 3 kartu pertama meja haruslah royal flush. contoh kartu anda 10,Queen kembang sama dan 3 kartu pertama meja adalah Jack, King dan aces dengan kembang yang sama

Demikian adalah penjelasan dari Multi Jackpot www.cocpoker.me terima kasih dan selamat bermain salam hoki dari kami

Texas Poker Jackpot Winner

TOP SUPER ROYAL FLUSH
No.TanggalNamaPriceWin
123/05 06:58MEJEWSuper Royal flush15,000,000
223/05 04:35MIZA03Super Royal flush15,000,000
323/05 02:38CERPE12Super Royal flush30,000,000
423/05 01:43GREEND99Super Royal flush3,000,000
523/05 00:51AAMUELQQSuper Royal flush30,000,000
TOP ROYAL FLUSH
No.TanggalNamaPriceWin
123/05 11:38DORDOR_99Royal flush5,000,000
223/05 11:29SEVILLAFC1Royal flush2,000,000
323/05 11:08AYONG777Royal flush10,000,000
423/05 10:34NGOPI_NAPARoyal flush2,000,000
523/05 10:19ADUY90Royal flush1,000,000
TOP STRAIGHT FLUSH
No.TanggalNamaPriceWin
123/05 11:44GESER94Straight Flush2,400,000
223/05 11:44T4DHAFIZD02Straight Flush240,000
323/05 11:41MUKSIN444Straight Flush120,000
423/05 11:40BOSKURPGStraight Flush240,000
523/05 11:37DEWWA89Straight Flush240,000
LATEST JACKPOT
No.TanggalNamaPriceWin
123/05 11:46BENDRIKS36Full House1,000
223/05 11:46W6JPBWBYL2Full House5,000
323/05 11:46MALIH69Four Of A Kind500,000
423/05 11:46STEMPLET41Full House5,000
523/05 11:46PAKUALAM12Full House2,000
623/05 11:46REZATULEMFull House5,000
723/05 11:46MALIX121Full House10,000
823/05 11:46MULES21Full House2,000
923/05 11:46SIONG55Full House5,000
1023/05 11:46K9D3UEGDHFFour Of A Kind125,000
1123/05 11:46C7388DD0Full House1,000
1223/05 11:46BORAKAFull House10,000
1323/05 11:46BODAD1998Full House2,000
1423/05 11:46LIGHTBROWNFull House2,000
1523/05 11:46ZETA81Full House5,000
1623/05 11:46PT4DJOKER46Full House2,000
1723/05 11:46DANU5778Full House1,000
1823/05 11:46JOISIN77Full House20,000
1923/05 11:46CINATA99Full House5,000
2023/05 11:46AV5C5QPLRUFull House5,000
2123/05 11:46GIBON75Full House10,000
2223/05 11:46SANCAMOFFFour Of A Kind50,000
2323/05 11:46SIWE77Full House1,000
2423/05 11:46BOASS16Full House2,000
2523/05 11:46POKAH78Full House5,000
2623/05 11:46SDKG14Full House10,000
2723/05 11:46ANDRE22Full House20,000
2823/05 11:45LYNIESFull House5,000
2923/05 11:45CHENXIAUANFull House5,000
3023/05 11:45MEGAR212Full House5,000
3123/05 11:45C7388DD0Full House1,000
3223/05 11:45RAMPAS7799Full House5,000
3323/05 11:45KENTHUS88Full House5,000
3423/05 11:45KINA010175Full House1,000
3523/05 11:45AAAYATEFull House2,000
3623/05 11:45MENG200Four Of A Kind25,000
3723/05 11:45SAUR92WFull House1,000
3823/05 11:45FDMARIF12Full House2,000
3923/05 11:45QIDIQ11Full House5,000
4023/05 11:45ADIT0987Full House2,000
4123/05 11:45KIUH2XFull House5,000
4223/05 11:45DHIEYATFull House2,000
4323/05 11:45INDAH1984Full House1,000
4423/05 11:45HASANUDINNFull House1,000
4523/05 11:45L00VEUFull House1,000
4623/05 11:45YUNI391Full House5,000
4723/05 11:45KY3UP55Full House5,000
4823/05 11:45RAHUL05088Full House1,000
4923/05 11:45IMANIATIFull House2,000
5023/05 11:45SHAM29Full House2,000

Domino Multi Jackpot System

Ikutilah global jackpot yang tersedia di system kami, dengan system jackpot terbaru dan pertama di indonesia, anda dapat membeli jackpot dengan harga 100 rupiah saja dan menangkan hadiahnya hingga puluhan juta rupiah.

Jackpot bukanlah suatu keharusan untuk dibeli, namun kami memberikan suatu fitur tambahan untuk member tercinta dari www.cocpoker.me.

Terdapat tiga pilihan harga jackpot yang bisa anda beli yaitu :100,500 dan 1000 rupiah.

Hadiah dari Multi jackpot system www.cocpoker.me

  1. Murni Kecil x 50 harga jackpot yang anda beli.
      (contoh:anda membeli 1000 maka:1000 X 50 = 50.000)
  2. Murni Besar x 50 harga jackpot yang anda beli
      (contoh:anda membeli 1000 maka:1000 X 50 = 50.000)
  3. BALAK x 100 harga jackpot yang anda beli
      (contoh:anda membeli 1000 maka:1000 X 100 = 100.000)
  4. ENAM DEWA x 6666 harga jackpot yang anda beli
      (contoh:anda membeli 1000 maka:1000 X 6666 = 6.666.000)

Demikian adalah penjelasan dari Multi Jackpot www.cocpoker.me terima kasih dan selamat bermain salam hoki dari kami

Domino Jackpot Winner

TOP ENAM DEWA
No.TanggalNamaPriceWin
123/05 11:42RAWU6666murni enam6,666,000
223/05 11:22LB888918murni enam666,600
323/05 09:22OKTO65murni enam3,333,000
423/05 06:08MULTIPLAY8murni enam6,666,000
523/05 03:35NTONGREMONmurni enam3,333,000
TOP BALAK
No.TanggalNamaPriceWin
123/05 11:42V_X10Nbalak100,000
223/05 11:32PAKWONG28balak100,000
323/05 11:31DADANGCEPbalak10,000
423/05 11:21MARYANTO70balak100,000
523/05 11:14R1YON22balak10,000
LATEST JACKPOT
No.TanggalNamaPriceWin
123/05 11:45SAIN123murni besar25,000
223/05 11:45AZKIYAH160murni besar50,000
323/05 11:45WALIPITUEmurni kecil25,000
423/05 11:43TRISTEGUH8murni kecil50,000
523/05 11:43RIZKI2013murni besar50,000
623/05 11:43UBEKVIPmurni besar25,000
723/05 11:42DM82997murni kecil50,000
823/05 11:42GEMEN11murni kecil5,000
923/05 11:42RAWU6666murni enam6,666,000
1023/05 11:42KIMJUNGASUmurni besar25,000
1123/05 11:42V_X10Nbalak100,000
1223/05 11:41EMPEROROVmurni besar25,000
1323/05 11:41KERONTANmurni kecil5,000
1423/05 11:41MAMPIR32murni besar5,000
1523/05 11:40MARYANTO70murni kecil50,000
1623/05 11:40PENCENG90murni kecil50,000
1723/05 11:39HRTNmurni kecil25,000
1823/05 11:37DHYDHYmurni besar50,000
1923/05 11:37MUNISImurni besar50,000
2023/05 11:36WINNER2187murni besar5,000
2123/05 11:36THE_101murni kecil5,000
2223/05 11:34CIPUT69murni besar5,000
2323/05 11:34ZACXmurni besar25,000
2423/05 11:34DIANATIOmurni besar50,000
2523/05 11:34BBEEKIYU66murni kecil50,000
2623/05 11:34BOLUI009murni besar50,000
2723/05 11:34PAP86murni kecil25,000
2823/05 11:33MRGALAU3murni besar50,000
2923/05 11:32GOODPAPAmurni kecil5,000
3023/05 11:32PAKWONG28balak100,000
3123/05 11:31DADANGCEPbalak10,000
3223/05 11:30HAM626murni besar50,000
3323/05 11:29BBCA13murni kecil5,000
3423/05 11:28AHONGPEONGmurni kecil5,000
3523/05 11:28T0L36666murni kecil5,000
3623/05 11:27ZONIAJA123lucky9925,000
3723/05 11:27HESTY90murni kecil25,000
3823/05 11:25RASIQPACUmurni besar5,000
3923/05 11:25PAKILLmurni kecil25,000
4023/05 11:24CB77DODOL99murni besar25,000
4123/05 11:24GOLEM999murni kecil50,000
4223/05 11:23CIKAU99AJAmurni besar50,000
4323/05 11:22LB888918murni enam666,600
4423/05 11:21MARYANTO70balak100,000
4523/05 11:20KIMJUNGASUmurni kecil25,000
4623/05 11:19DELLI1990murni besar5,000
4723/05 11:15MARYANTO70murni besar50,000
4823/05 11:15ADEUYI123murni besar5,000
4923/05 11:14MIKHATBYGmurni besar50,000
5023/05 11:14R1YON22balak10,000

Ceme Multi Jackpot System

Jackpot dilihat dari gabungan kartu pemain dengan kartu bandar. Bandar harus membeli jackpot sebanyak jumlah player yang sedang duduk. Sebagai contoh bila terdapat 3 pemain duduk bermain, dan bandar memutuskan untuk membeli jackpot Rp 1.000, maka pada periode tersebut bandar akan membeli jackpot sebanyak 3xRp1.000 = Rp3.000.

Jackpot bukanlah suatu keharusan untuk dibeli, namun kami memberikan suatu fitur tambahan untuk member tercinta dari www.cocpoker.me.

Terdapat tiga pilihan harga jackpot yang bisa anda beli yaitu :100,500 dan 1000 rupiah.

Hadiah dari Multi jackpot system www.cocpoker.me

  1. Murni Kecil x 50 harga jackpot yang anda beli.
      (contoh:anda membeli 1000 maka:1000 X 50 = 50.000)
  2. Murni Besar x 50 harga jackpot yang anda beli
      (contoh:anda membeli 1000 maka:1000 X 50 = 50.000)
  3. BALAK x 200 harga jackpot yang anda beli
      (contoh:anda membeli 1000 maka:1000 X 200 = 200.000)
  4. ENAM DEWA x 6666 harga jackpot yang anda beli
      (contoh:anda membeli 1000 maka:1000 X 6666 = 6.666.000)

Demikian adalah penjelasan dari Multi Jackpot www.cocpoker.me terima kasih dan selamat bermain salam hoki dari kami

Ceme Jackpot Winner

TOP ENAM DEWA
No.TanggalNamaPriceWin
123/05 11:35MANTEP777murni enam6,666,000
223/05 11:21CHOUNG27murni enam6,666,000
323/05 09:46YESYOS88murni enam6,666,000
423/05 09:46IDNGCONG14murni enam3,333,000
523/05 08:50HK_5888murni enam6,666,000
TOP BALAK
No.TanggalNamaPriceWin
123/05 11:45WIIRYO1234balak200,000
223/05 11:44XXIXXI696balak20,000
323/05 11:43NAIDA95balak20,000
423/05 11:43MALAKAINIbalak200,000
523/05 11:42YITAGSbalak200,000
LATEST JACKPOT
No.TanggalNamaPriceWin
123/05 11:46SHIPSEKImurni kecil50,000
223/05 11:46PETOT030murni besar5,000
323/05 11:45HOTALUmurni besar5,000
423/05 11:45VANDERGUNmurni besar25,000
523/05 11:45HOTALUmurni besar5,000
623/05 11:45PNENGGmurni besar5,000
723/05 11:45HK_5888murni kecil50,000
823/05 11:45JEPARA21murni kecil50,000
923/05 11:45WIIRYO1234balak200,000
1023/05 11:44MATCUTAT88murni besar25,000
1123/05 11:44MASLANI8murni kecil5,000
1223/05 11:44E98NRL2WJNmurni kecil50,000
1323/05 11:44MAND82murni kecil25,000
1423/05 11:44DWTFORTUNA96murni kecil50,000
1523/05 11:44BAYU354murni kecil50,000
1623/05 11:44RAGIELSYAHmurni besar5,000
1723/05 11:44ADOEL777murni kecil5,000
1823/05 11:44RUDIHOKI77murni kecil50,000
1923/05 11:44ARIEL6666murni kecil50,000
2023/05 11:44XXIXXI696balak20,000
2123/05 11:43RUDIAN09murni kecil50,000
2223/05 11:43NAIDA95balak20,000
2323/05 11:43KOMENG432murni besar50,000
2423/05 11:43WG1933murni besar5,000
2523/05 11:43SONIX332murni kecil50,000
2623/05 11:43BISON6666murni kecil50,000
2723/05 11:43SWARA16murni besar50,000
2823/05 11:43AVVIG6GA8Pmurni kecil50,000
2923/05 11:43BEBON01murni besar25,000
3023/05 11:43MALAKAINIbalak200,000
3123/05 11:43CAKA789murni kecil25,000
3223/05 11:42NOV1992murni kecil50,000
3323/05 11:42YITAGSbalak200,000
3423/05 11:42B453Lmurni besar25,000
3523/05 11:41FIGHTHINGbalak200,000
3623/05 11:41DIWANA18murni besar50,000
3723/05 11:41N00R112murni besar50,000
3823/05 11:41MARTHINEZbalak200,000
3923/05 11:41SLAM3T12murni besar25,000
4023/05 11:40CAKMAMAT12murni kecil50,000
4123/05 11:40BETANIA123murni besar50,000
4223/05 11:40LOCJMN1TSVmurni besar50,000
4323/05 11:40LOCJMN1TSVmurni besar50,000
4423/05 11:40FAJARRAH33murni kecil50,000
4523/05 11:40DIWANA18murni besar50,000
4623/05 11:40TUMBANG00murni besar50,000
4723/05 11:40DWIDAIRmurni besar50,000
4823/05 11:40GULSERENmurni kecil50,000
4923/05 11:40GALIH51murni kecil50,000
5023/05 11:40GALIH51murni kecil50,000